Temp
62 62 62 61 61 61 61 61 61 61 61 61 62 61 61 61 61 54 59 74 72 74 76 74 71 70 68 65 66 62 56 52 57 59 61 65 69 72 75 74 73 76 72 73 74
61 61 61 61 61 61 61 61 61 61 61 61 61 61 61 61 53 58 73 74 74 75 73 70 68 69 65 63 64 62 55 60 66 66 65 69 69 72 72 71 69 71 74 75 73
61 61 61 61 61 60 60 61 61 61 61 61 61 61 61 58 57 71 78 74 74 74 73 71 70 68 60 60 63 59 61 65 67 68 69 67 67 73 69 65 71 70 71 72 71
60 61 61 60 61 60 60 60 61 61 61 61 61 61 62 55 58 73 77 74 75 76 73 69 66 60 58 59 63 58 64 66 67 69 68 68 72 69 70 72 77 75 75 73 71
60 60 60 60 60 60 60 60 60 61 61 61 61 62 57 61 69 73 76 76 75 75 71 68 63 61 58 60 62 59 62 66 67 67 66 71 67 68 71 75 78 76 76 74 73
59 59 60 60 60 60 60 60 59 59 60 61 62 62 59 60 77 76 74 74 73 71 71 69 69 69 62 60 59 62 62 63 65 64 65 68 64 69 71 74 74 75 73 73 73
59 59 59 59 59 60 60 59 58 59 60 62 63 65 62 71 77 75 75 72 73 75 73 73 72 68 66 61 64 63 61 66 65 64 63 67 67 65 71 73 71 71 71 71 72
58 58 58 59 59 60 60 59 59 60 61 63 64 61 65 76 76 76 70 75 75 75 75 76 73 67 64 65 67 62 60 54 60 65 67 67 60 68 71 70 68 69 69 69 69
58 57 58 58 59 59 59 58 62 63 63 64 58 58 68 76 77 80 78 76 76 76 76 86 71 64 66 59 56 58 51 51 58 64 64 62 60 67 70 69 66 66 67 68 66
57 57 57 57 58 58 57 59 63 62 63 66 69 61 72 72 79 82 77 78 76 74 73 71 63 60 56 56 50 53 53 51 54 63 60 55 59 63 66 68 66 65 66 66 66
57 56 56 56 57 57 55 58 62 61 65 64 68 69 75 81 82 77 80 78 75 72 60 63 60 55 58 58 59 60 56 57 59 65 61 59 64 64 66 65 63 64 64 65 65
56 56 56 56 57 56 54 64 62 62 55 67 67 70 77 79 73 76 81 72 67 61 61 60 53 62 64 63 61 60 57 56 60 62 63 57 62 62 65 64 64 65 65 66 63
55 55 56 56 55 56 54 64 65 61 53 64 70 68 72 76 71 73 79 71 65 61 58 56 62 68 67 62 60 56 56 55 58 58 59 57 54 58 65 67 68 67 67 67 66
55 55 55 54 59 51 60 61 61 60 50 61 66 72 73 74 70 80 80 76 65 64 62 58 65 65 61 62 63 52 64 64 62 55 50 56 47 53 59 63 65 65 66 66 66
55 55 55 54 48 52 65 59 60 63 40 67 67 75 70 72 72 74 79 74 66 67 64 62 63 62 60 64 66 63 64 62 59 53 50 52 49 55 56 58 63 66 66 67 67
55 55 54 51 47 53 57 57 63 51 42 63 69 65 64 68 70 72 73 76 72 66 64 64 68 67 67 69 68 68 61 56 51 48 44 49 50 51 52 62 67 69 70 70 68
54 54 52 54 56 55 57 62 51 42 62 62 63 67 64 65 67 68 66 61 60 53 54 59 62 67 71 64 64 60 54 43 43 43 43 48 48 54 59 63 66 69 72 72 68
53 52 49 53 49 55 58 55 41 54 56 67 66 64 60 65 64 65 63 59 61 60 53 51 52 64 70 65 61 56 54 45 39 38 45 48 45 56 62 64 64 65 67 71 66
51 46 46 51 52 51 55 43 47 52 62 61 63 58 57 62 62 61 60 60 64 63 56 49 54 66 69 69 67 56 53 54 45 40 41 44 51 61 62 64 62 62 63 63 63
47 44 49 55 55 54 51 45 50 58 62 61 55 60 54 57 57 56 57 64 63 65 63 57 52 64 67 67 63 60 61 51 44 38 37 42 45 49 56 61 61 60 60 60 60
44 48 58 55 56 52 43 45 53 61 62 58 54 54 56 55 55 55 59 64 65 63 61 58 54 57 61 58 58 56 51 48 47 43 39 37 44 54 59 61 62 61 60 59 60
41 46 58 57 50 42 42 50 57 60 62 61 58 57 55 56 54 54 57 61 68 66 59 56 51 48 56 59 61 56 55 50 43 43 40 40 44 58 60 61 60 62 62 61 62
38 40 53 56 43 42 47 55 59 59 58 58 56 59 57 53 49 55 58 67 68 65 59 57 48 43 50 54 57 55 56 51 46 43 40 40 44 60 59 59 60 61 61 62 62
40 41 46 47 44 44 44 50 53 61 60 61 58 57 53 50 53 53 55 64 66 65 62 60 47 48 44 50 51 50 54 51 49 41 44 44 49 58 62 61 62 61 62 61 61
39 39 41 39 43 42 42 48 50 51 57 57 53 55 50 46 49 50 55 59 64 62 56 56 50 47 51 55 54 54 55 53 51 50 49 54 48 57 60 61 62 63 62 61 62
38 38 42 39 41 42 44 43 49 52 52 53 52 55 51 47 52 51 53 52 55 55 51 50 48 48 47 55 55 53 56 55 54 52 51 52 51 59 60 60 62 62 62 61 62
40 43 43 40 40 40 41 45 49 50 54 55 53 51 50 54 55 57 56 55 55 52 50 49 46 43 41 50 51 45 51 55 55 55 56 50 55 58 60 61 61 62 62 62 62
MSLP
1018.33 1017.81 1017.26 1016.83 1016.33 1015.79 1015.35 1014.95 1014.51 1014.15 1013.92 1013.69 1013.46 1013.28 1013.23 1013.23 1012.99 1013.07 1011.97 1009.60 1009.35 1009.24 1009.37 1009.74 1009.94 1010.08 1010.25 1010.73 1011.03 1011.69 1012.69 1013.28 1012.53 1012.38 1011.68 1011.30 1011.13 1011.25 1011.25 1011.54 1011.99 1012.43 1012.94 1013.25 1014.15
1018.52 1017.88 1017.32 1016.74 1016.23 1015.80 1015.30 1014.87 1014.42 1014.04 1013.75 1013.54 1013.32 1013.15 1013.12 1013.12 1012.94 1011.82 1008.87 1008.95 1009.01 1009.20 1009.40 1009.61 1009.86 1009.91 1010.39 1010.64 1011.08 1011.48 1012.51 1011.74 1010.91 1010.87 1010.91 1010.87 1010.77 1010.93 1011.30 1011.84 1012.28 1012.69 1012.99 1013.68 1014.76
1018.54 1017.95 1017.40 1016.79 1016.21 1015.63 1015.11 1014.64 1014.15 1013.81 1013.49 1013.30 1013.20 1013.03 1012.98 1012.96 1012.36 1009.35 1007.94 1008.69 1008.92 1009.12 1009.32 1009.54 1009.61 1009.76 1010.22 1010.43 1010.66 1011.06 1011.24 1010.59 1010.49 1010.40 1010.46 1010.89 1011.15 1011.11 1011.45 1012.28 1012.27 1012.37 1013.13 1014.04 1015.05
1018.48 1017.84 1017.29 1016.69 1016.12 1015.54 1014.87 1014.34 1013.88 1013.43 1013.18 1013.02 1012.98 1012.87 1012.80 1012.88 1011.01 1008.45 1008.06 1008.56 1008.76 1009.02 1009.38 1009.58 1009.66 1009.92 1010.10 1010.27 1010.19 1010.61 1010.73 1010.63 1010.59 1010.74 1010.95 1011.23 1011.45 1011.59 1011.68 1011.64 1011.49 1012.35 1012.84 1013.92 1014.82
1018.56 1017.87 1017.17 1016.48 1015.83 1015.32 1014.69 1014.05 1013.59 1013.06 1012.82 1012.70 1012.61 1012.67 1012.66 1011.75 1009.57 1008.48 1008.41 1008.50 1008.88 1009.10 1009.35 1009.48 1009.55 1009.66 1009.87 1010.08 1010.21 1010.52 1010.74 1010.91 1011.13 1011.20 1011.48 1011.48 1011.73 1011.82 1011.54 1011.17 1011.49 1012.32 1013.11 1013.77 1014.38
1018.57 1017.88 1017.22 1016.49 1015.67 1014.95 1014.30 1013.66 1013.10 1012.64 1012.53 1012.53 1012.57 1012.64 1012.25 1010.37 1008.08 1008.36 1008.73 1008.88 1008.95 1009.11 1009.20 1009.28 1009.09 1009.08 1009.65 1010.13 1010.53 1010.78 1011.09 1011.39 1011.70 1011.83 1011.92 1011.85 1011.98 1011.48 1011.56 1011.58 1012.14 1012.55 1013.29 1013.95 1014.33
1018.51 1017.78 1017.05 1016.28 1015.41 1014.60 1013.89 1013.13 1012.46 1012.04 1012.14 1012.15 1012.32 1012.38 1011.47 1008.88 1008.07 1008.38 1008.61 1008.67 1008.71 1008.88 1008.90 1008.85 1008.67 1008.99 1009.35 1010.35 1010.85 1011.04 1011.48 1011.64 1012.15 1012.13 1012.06 1011.88 1012.01 1011.78 1011.57 1011.89 1012.47 1013.10 1013.64 1013.97 1014.38
1018.62 1017.85 1016.99 1016.06 1015.17 1014.34 1013.51 1012.67 1011.94 1011.68 1011.94 1012.14 1012.32 1012.02 1010.28 1007.96 1007.99 1008.34 1008.59 1008.50 1008.43 1008.58 1008.58 1008.40 1008.51 1008.90 1009.55 1010.32 1010.74 1011.47 1012.00 1012.79 1012.57 1012.31 1012.28 1012.14 1011.95 1011.61 1011.81 1012.55 1013.13 1013.58 1013.87 1014.22 1014.38
1018.71 1017.99 1017.13 1016.13 1015.17 1014.15 1013.45 1012.73 1012.15 1011.90 1012.05 1012.23 1012.33 1011.66 1009.37 1007.72 1007.81 1007.57 1007.86 1008.24 1008.14 1008.24 1008.39 1008.44 1008.71 1009.51 1010.19 1010.95 1011.83 1012.19 1012.56 1012.87 1012.60 1012.42 1012.59 1012.81 1012.36 1012.12 1012.12 1012.89 1013.57 1014.00 1014.28 1014.56 1014.81
1018.93 1018.06 1017.15 1016.19 1015.16 1014.07 1013.34 1012.75 1012.36 1012.13 1012.35 1012.25 1011.88 1011.37 1008.77 1008.04 1007.60 1007.29 1007.52 1007.87 1008.00 1008.03 1008.38 1008.82 1009.64 1010.24 1011.10 1011.37 1012.27 1012.40 1012.50 1012.62 1012.66 1012.44 1012.93 1013.25 1012.40 1012.31 1012.76 1013.28 1013.74 1014.06 1014.36 1014.72 1015.01
1018.93 1018.16 1017.18 1016.11 1015.15 1014.15 1013.32 1012.85 1013.19 1012.54 1012.08 1011.97 1011.05 1010.21 1008.70 1007.66 1007.13 1007.17 1007.14 1007.61 1007.89 1008.28 1008.92 1009.55 1010.32 1010.66 1010.94 1011.05 1011.09 1011.44 1011.70 1012.09 1011.93 1011.54 1012.35 1012.42 1012.20 1012.24 1012.87 1013.28 1013.91 1014.15 1014.26 1014.63 1014.97
1019.04 1018.29 1017.28 1016.00 1014.98 1014.08 1013.81 1014.14 1014.61 1014.58 1012.73 1010.52 1009.60 1009.34 1008.28 1007.78 1007.74 1007.07 1006.94 1007.60 1008.02 1008.74 1009.19 1009.97 1010.36 1010.23 1010.47 1010.72 1011.05 1011.51 1011.83 1011.69 1011.49 1011.41 1012.28 1012.46 1012.20 1012.74 1012.69 1012.78 1013.24 1013.89 1014.22 1014.40 1015.02
1019.37 1018.54 1017.37 1015.89 1014.83 1014.43 1014.96 1014.32 1014.21 1014.18 1013.56 1009.52 1008.62 1008.01 1007.53 1007.72 1007.70 1006.82 1006.85 1007.38 1008.00 1008.79 1009.31 1009.80 1009.62 1009.39 1009.67 1010.17 1010.71 1010.79 1010.65 1010.61 1011.28 1011.85 1012.39 1012.75 1012.98 1012.58 1012.22 1012.30 1012.79 1013.31 1013.89 1014.32 1014.47
1019.23 1018.52 1017.79 1016.21 1015.02 1015.97 1014.81 1014.25 1014.01 1013.91 1013.06 1009.61 1007.82 1006.75 1006.97 1006.89 1006.99 1006.22 1006.39 1007.11 1008.00 1008.61 1009.33 1009.48 1009.05 1008.96 1009.07 1009.39 1009.66 1009.90 1009.58 1010.09 1011.09 1012.11 1012.63 1012.68 1013.27 1012.51 1012.00 1011.86 1012.35 1012.69 1013.05 1013.66 1014.28
1019.10 1018.56 1018.09 1017.62 1017.36 1016.29 1014.33 1013.70 1013.40 1013.38 1012.41 1008.44 1007.02 1006.14 1006.50 1006.64 1006.26 1006.02 1005.98 1006.56 1007.68 1008.39 1009.06 1008.92 1008.72 1008.64 1008.61 1008.43 1008.65 1008.92 1009.12 1010.21 1011.05 1012.33 1012.78 1013.08 1013.38 1012.10 1012.04 1012.23 1011.78 1011.65 1011.96 1012.43 1013.09
1018.92 1018.44 1018.16 1017.69 1017.44 1015.16 1014.28 1013.67 1013.26 1013.35 1011.02 1008.10 1006.77 1006.44 1006.72 1006.51 1006.18 1006.08 1006.14 1006.43 1007.29 1008.15 1008.56 1008.62 1008.13 1008.00 1007.51 1007.64 1007.78 1008.59 1009.73 1011.16 1012.43 1013.20 1013.92 1013.13 1013.42 1012.84 1012.00 1010.71 1010.61 1010.71 1010.75 1011.15 1011.90
1018.46 1017.64 1017.94 1017.67 1016.00 1014.84 1014.32 1013.89 1014.07 1013.14 1010.08 1008.54 1007.42 1006.92 1006.62 1006.63 1006.50 1006.36 1006.69 1007.20 1007.88 1008.70 1009.01 1008.62 1008.08 1007.30 1007.04 1007.43 1008.17 1009.07 1010.69 1012.67 1014.10 1014.63 1014.42 1013.61 1013.50 1012.01 1010.65 1010.15 1010.08 1010.02 1010.01 1010.20 1011.45
1017.88 1016.89 1016.55 1016.00 1015.35 1014.96 1014.82 1014.69 1014.13 1011.93 1010.43 1008.71 1007.91 1007.33 1007.17 1006.84 1006.78 1006.75 1007.02 1007.58 1007.94 1008.57 1009.43 1009.07 1008.20 1007.29 1006.78 1007.09 1007.96 1009.36 1010.62 1012.23 1013.79 1015.31 1014.65 1013.94 1012.83 1010.78 1009.93 1010.01 1010.09 1009.84 1009.58 1009.99 1010.66
1017.83 1016.60 1016.44 1015.06 1015.05 1015.51 1015.46 1015.29 1013.33 1011.82 1010.47 1009.51 1008.44 1007.99 1007.73 1007.24 1007.16 1007.23 1007.47 1007.55 1007.66 1008.06 1008.92 1009.15 1008.43 1007.22 1006.82 1006.91 1007.69 1009.50 1010.71 1011.59 1013.62 1015.20 1015.10 1013.88 1012.47 1010.63 1009.68 1009.62 1009.85 1009.80 1009.77 1010.12 1010.71
1018.72 1017.71 1016.00 1014.79 1014.82 1015.34 1015.37 1015.01 1013.31 1011.73 1010.52 1009.86 1009.36 1008.73 1008.50 1008.07 1007.76 1007.61 1007.55 1007.30 1007.33 1007.50 1007.71 1008.85 1008.88 1007.72 1007.14 1007.28 1008.22 1008.77 1010.15 1011.94 1013.63 1015.22 1015.57 1014.15 1012.95 1011.44 1010.33 1009.89 1009.90 1010.23 1010.41 1010.61 1011.02
1018.83 1017.66 1015.36 1014.78 1014.83 1015.39 1015.79 1014.70 1012.99 1011.47 1010.84 1010.24 1009.77 1009.43 1009.14 1008.79 1008.41 1008.13 1007.72 1007.31 1007.18 1007.63 1007.97 1008.68 1009.30 1008.64 1008.21 1008.00 1008.33 1009.39 1010.43 1011.96 1013.28 1014.26 1014.72 1014.33 1012.97 1010.26 1009.81 1009.62 1009.77 1009.98 1010.42 1010.49 1010.78
1019.42 1018.24 1015.56 1015.21 1015.65 1016.21 1015.66 1014.20 1012.62 1011.39 1010.69 1010.27 1010.06 1009.96 1009.68 1009.34 1009.03 1008.65 1008.11 1007.35 1007.02 1007.30 1008.32 1009.02 1009.81 1009.65 1008.78 1008.17 1008.27 1008.78 1009.57 1011.08 1013.04 1014.45 1014.57 1013.70 1011.58 1009.63 1009.31 1009.26 1009.33 1009.45 1009.88 1010.33 1010.39
1020.58 1018.90 1016.02 1015.70 1016.24 1016.33 1015.23 1013.97 1012.66 1011.59 1010.93 1010.62 1010.47 1010.20 1010.06 1010.06 1010.03 1009.23 1008.22 1007.10 1007.10 1007.45 1007.96 1009.06 1010.29 1010.42 1009.60 1009.30 1008.62 1008.83 1009.48 1010.31 1011.61 1012.85 1013.59 1013.41 1011.07 1009.29 1009.00 1009.03 1008.99 1009.25 1009.48 1009.89 1010.39
1020.98 1019.88 1017.85 1017.12 1016.96 1016.34 1015.48 1014.15 1012.91 1011.60 1011.24 1010.92 1010.81 1010.65 1010.66 1010.62 1010.36 1009.69 1008.83 1007.78 1007.43 1007.50 1007.93 1008.62 1010.34 1010.67 1010.43 1009.59 1009.05 1008.96 1009.28 1010.24 1010.78 1012.14 1012.31 1011.68 1010.38 1009.19 1008.51 1008.33 1008.43 1008.67 1008.82 1009.33 1010.02
1021.47 1020.99 1020.33 1018.94 1018.15 1017.53 1016.47 1014.93 1013.47 1012.34 1011.62 1011.25 1011.20 1011.23 1011.53 1011.56 1010.96 1010.35 1009.38 1008.70 1008.10 1008.17 1008.61 1009.10 1010.46 1010.65 1010.11 1009.68 1009.27 1009.07 1009.12 1009.56 1010.21 1010.22 1010.64 1009.85 1009.87 1008.78 1007.95 1007.75 1007.82 1007.95 1008.19 1008.78 1009.12
1021.95 1021.69 1020.99 1020.00 1018.99 1018.10 1016.89 1015.65 1014.46 1013.38 1012.69 1012.12 1011.91 1011.67 1011.86 1012.00 1011.38 1010.80 1010.04 1009.48 1008.93 1008.71 1009.10 1009.85 1010.53 1010.84 1010.61 1009.78 1009.49 1009.28 1009.02 1009.31 1009.48 1009.47 1009.40 1009.01 1008.78 1007.71 1007.50 1007.51 1007.61 1007.59 1007.83 1008.23 1008.14
1022.30 1022.01 1021.51 1020.43 1019.53 1018.71 1017.50 1016.51 1015.52 1014.97 1013.53 1012.93 1012.88 1012.60 1012.12 1011.76 1011.55 1010.67 1010.26 1009.68 1009.39 1009.46 1009.87 1010.43 1010.84 1011.56 1011.26 1010.44 1009.92 1009.21 1008.51 1008.38 1008.41 1008.26 1008.23 1008.31 1007.71 1007.38 1007.28 1007.38 1007.27 1007.24 1007.32 1007.35 1007.12
Wind_Speed
20 20 19 18 17 17 17 15 13 11 11 11 10 8 7 8 8 2 5 10 5 6 3 5 2 2 3 3 3 4 6 2 5 8 5 2 4 2 4 5 2 4 7 4 12
20 20 19 19 19 17 17 16 14 12 10 9 9 8 6 5 1 5 11 7 4 7 3 3 3 3 2 1 1 5 4 10 7 8 8 8 6 7 5 5 1 4 7 11 13
21 20 20 20 20 19 18 17 15 12 10 8 8 7 5 2 2 6 3 9 9 7 3 2 3 3 2 1 4 4 5 4 3 4 2 4 3 2 9 3 5 12 11 13 11
23 23 22 21 20 19 19 17 16 14 11 8 7 7 5 1 3 2 2 13 10 6 4 3 2 3 3 3 2 1 1 1 3 4 5 7 6 3 4 5 8 8 14 12 12
22 23 23 23 22 20 19 18 16 14 12 9 7 5 1 3 6 4 9 13 7 5 4 4 2 4 2 2 2 2 0 6 5 9 6 5 3 3 7 5 10 11 13 15 13
22 23 23 23 23 22 21 19 17 13 10 7 6 4 2 3 2 7 9 7 5 5 4 5 6 5 3 1 2 2 4 4 8 5 4 5 0 2 4 1 8 14 10 10 10
23 24 25 25 25 25 23 21 18 12 8 6 5 3 0 8 3 7 7 5 5 4 5 4 3 2 3 4 3 1 6 7 7 5 3 2 4 4 4 6 8 8 7 7 7
23 24 26 27 27 26 26 24 14 2 4 5 3 1 6 2 4 7 3 3 3 5 2 4 4 1 3 3 6 6 7 3 3 2 5 5 10 4 5 7 7 8 7 7 6
23 24 26 27 28 28 25 19 5 7 5 5 1 1 8 1 2 2 7 4 3 3 4 2 3 4 5 6 5 8 4 1 1 3 3 1 7 4 7 7 7 7 7 7 5
23 25 26 27 28 28 25 5 4 5 3 3 3 2 4 1 4 3 4 3 2 2 3 5 5 4 5 6 5 5 5 2 4 7 3 2 14 5 2 6 8 8 7 7 7
24 25 26 28 28 27 12 2 8 6 6 5 8 4 7 6 3 2 3 5 3 7 2 4 5 5 6 4 5 5 4 6 5 8 8 15 15 11 6 6 9 9 9 8 7
26 26 26 29 27 25 1 7 4 2 12 10 13 7 5 3 5 3 5 4 3 3 1 6 2 5 5 5 5 6 8 7 4 3 10 2 16 5 6 5 5 9 10 12 7
22 24 27 30 31 5 3 8 1 3 3 9 6 5 6 10 8 8 7 3 3 4 3 6 4 3 5 5 5 5 5 4 4 3 3 5 6 6 6 5 5 7 8 8 14
22 22 23 34 5 6 5 2 5 5 5 9 4 5 4 8 4 8 7 7 1 8 7 4 4 2 2 4 7 3 8 4 8 6 4 2 5 5 6 8 7 9 13 13 12
23 22 20 15 5 4 6 8 6 3 5 3 1 2 2 7 3 3 5 5 7 6 6 6 4 5 4 6 7 9 6 5 2 5 5 1 5 9 4 6 12 14 14 16 17
24 22 21 1 2 8 9 9 2 7 7 6 2 2 3 2 1 2 4 6 3 4 0 6 2 4 7 3 5 7 8 8 6 3 2 5 7 7 5 12 12 14 16 17 18
26 26 16 2 5 5 7 4 6 4 5 4 2 3 3 3 2 2 4 4 6 3 3 3 4 4 3 3 4 7 8 3 3 4 6 1 4 10 6 6 9 12 17 17 14
29 29 2 6 4 6 4 6 3 4 5 4 4 4 3 5 3 2 5 3 3 5 3 3 6 5 4 5 7 5 8 8 7 5 7 2 6 8 7 5 8 11 12 9 14
26 4 4 4 4 1 6 3 9 7 3 5 6 3 3 3 0 1 5 5 7 9 9 5 7 5 4 3 5 5 4 4 9 4 2 3 6 9 4 6 3 7 5 7 12
6 5 5 1 6 4 6 6 5 4 3 3 2 3 1 2 1 2 2 3 4 9 4 3 3 4 1 4 4 4 5 4 3 5 5 5 4 7 5 10 5 5 7 7 7
3 5 4 4 2 6 4 8 5 7 4 2 2 2 2 3 1 2 4 2 3 2 3 6 6 8 2 4 9 3 1 6 6 5 8 3 8 9 9 9 9 8 8 8 10
3 3 2 1 4 1 3 6 4 3 1 2 2 4 4 1 2 2 5 5 5 6 6 3 5 6 11 2 2 2 7 7 7 5 1 4 9 4 9 7 8 9 9 8 11
2 4 4 3 3 3 5 4 4 2 2 1 2 5 3 1 3 5 5 6 5 6 7 7 1 2 9 7 2 4 4 4 6 4 7 7 8 3 5 6 8 9 8 8 9
2 4 5 4 2 1 2 5 5 3 4 4 4 2 1 2 6 5 4 4 3 3 7 8 4 9 8 9 2 3 5 4 5 5 6 8 6 7 7 8 6 8 9 8 8
2 2 1 4 2 4 3 4 2 3 3 3 2 2 1 4 3 5 5 5 4 6 3 7 5 5 6 7 3 4 4 8 8 6 7 7 9 9 9 9 8 7 5 8 11
1 2 4 3 4 4 2 3 3 5 3 5 5 5 1 4 7 6 3 4 7 2 3 1 5 6 3 3 6 5 7 5 4 2 6 7 7 9 7 5 8 10 8 10 12
2 2 0 3 4 2 2 3 3 6 5 2 4 4 4 5 6 11 7 5 5 4 6 5 8 4 6 3 4 8 9 10 6 5 7 8 10 4 6 9 9 10 8 11 13
Wind_Direction
360 355 351 347 344 340 337 334 331 320 300 295 297 300 308 314 311 132 231 220 197 126 146 130 98 115 68 110 103 118 61 205 235 162 201 224 140 169 110 123 195 178 139 209 125
357 354 350 346 344 339 333 328 327 323 302 288 287 288 292 322 299 234 244 182 156 159 109 129 150 146 66 137 111 102 130 221 196 176 168 193 160 145 129 147 312 64 65 107 132
355 353 349 346 342 337 332 325 323 322 310 287 277 274 285 2 270 250 227 175 170 170 126 98 114 110 102 125 185 165 201 216 184 173 177 116 94 91 122 182 206 172 148 141 149
354 352 347 343 340 336 329 324 319 320 313 287 273 280 299 178 116 27 336 142 148 153 100 107 67 87 136 193 169 238 23 174 84 65 81 117 127 106 132 212 155 161 154 152 164
350 347 345 341 336 334 327 320 312 308 302 286 270 275 274 310 254 65 103 127 128 119 177 163 144 138 163 209 33 177 212 51 59 63 69 80 70 163 206 255 142 149 159 173 174
348 345 341 338 334 332 328 322 307 296 288 271 260 285 243 317 121 133 122 131 156 145 189 166 195 206 130 75 146 139 90 61 40 45 68 117 49 111 228 12 133 155 176 173 170
346 344 340 337 333 332 331 326 314 292 263 228 224 257 220 233 74 146 149 177 176 189 182 210 169 142 89 120 202 97 66 35 34 19 16 325 325 212 169 150 127 136 148 149 174
344 342 339 336 334 332 334 329 324 357 177 181 209 189 253 243 125 130 162 283 208 233 263 153 158 138 67 164 27 66 62 79 347 75 5 62 249 252 156 144 145 144 144 148 155
342 340 338 335 333 330 336 328 43 100 122 149 154 318 271 292 287 166 151 219 186 210 244 122 92 89 53 87 29 16 154 185 334 168 92 91 261 344 151 160 159 154 148 152 124
342 339 336 333 331 330 332 292 133 101 152 199 260 41 289 147 289 268 187 175 288 290 73 51 52 76 38 74 189 178 117 160 222 209 128 189 259 290 235 166 172 165 157 154 156
341 339 335 331 330 329 344 349 8 353 41 232 243 268 288 274 271 215 160 122 167 54 161 5 77 181 185 174 144 112 122 180 233 217 141 215 232 254 218 166 176 184 172 168 169
341 338 336 330 329 322 293 79 75 231 303 237 239 252 253 47 318 266 136 135 141 208 82 22 259 218 144 151 155 170 192 218 222 269 183 150 237 250 206 229 182 190 185 179 155
339 338 338 328 323 20 332 125 87 147 252 298 207 193 201 141 211 257 141 154 149 144 168 158 231 145 163 158 178 207 202 199 189 90 29 109 310 200 228 185 181 189 201 197 190
338 340 342 330 51 325 295 5 274 195 36 282 267 275 124 146 243 210 184 142 104 194 159 227 265 251 148 243 162 220 205 167 130 127 211 170 263 255 214 209 199 198 197 197 194
334 337 340 333 295 317 289 327 318 81 357 258 229 120 152 158 188 237 186 89 170 189 120 243 192 230 256 219 174 225 136 161 107 146 97 231 78 270 145 206 223 219 210 201 196
329 329 336 349 265 251 318 305 66 47 257 320 119 156 148 228 259 88 118 78 152 156 223 228 243 230 217 153 179 143 67 48 53 81 65 224 143 280 197 211 220 223 226 212 195
325 320 319 259 244 334 318 26 46 154 315 305 338 16 190 211 265 167 153 171 163 117 280 309 236 265 203 107 50 65 71 5 351 359 221 105 86 235 227 241 233 238 234 222 184
324 318 283 215 270 352 17 52 186 236 255 316 336 298 179 161 221 228 146 225 174 100 95 174 314 188 177 195 176 175 153 155 193 199 240 67 234 252 208 205 248 262 253 224 179
321 329 293 263 212 126 85 100 210 208 280 349 319 69 344 21 202 107 201 224 203 168 168 167 271 279 225 160 133 176 181 170 102 15 49 233 290 312 286 299 335 291 257 183 169
319 342 280 330 142 75 81 228 241 240 352 355 291 20 279 326 61 106 198 240 262 187 119 190 291 237 208 94 35 154 154 83 10 139 230 285 277 232 255 256 263 237 194 173 150
1 358 299 125 91 50 168 229 263 245 217 222 271 295 248 291 246 245 218 274 179 70 155 139 141 265 347 201 181 139 192 54 114 127 170 203 262 217 219 217 226 233 219 196 182
359 342 289 29 55 61 184 203 246 263 341 273 223 235 236 280 321 272 231 232 183 158 146 189 152 233 216 216 212 201 172 139 127 224 202 154 265 224 231 237 210 236 215 215 204
19 275 321 69 184 234 268 262 254 253 220 223 267 214 189 192 317 231 251 267 210 171 168 180 132 352 333 353 349 199 192 122 111 88 192 149 257 246 257 248 243 240 219 211 215
11 341 320 37 20 271 291 237 239 245 256 223 245 249 278 258 216 264 251 280 260 144 122 108 139 163 195 221 200 196 187 167 131 126 194 211 239 275 254 227 226 228 232 211 195
37 291 162 311 3 350 308 312 250 227 245 204 294 132 28 267 293 218 241 308 274 176 95 129 197 179 239 234 220 257 224 173 189 200 179 234 192 242 242 230 241 250 230 197 203
37 33 349 287 308 314 255 271 244 311 222 246 253 286 222 215 222 263 250 209 228 251 147 0 203 162 261 273 226 256 260 226 246 221 273 264 272 227 285 290 280 264 245 219 211
332 335 217 287 326 7 272 331 339 339 284 270 44 317 258 246 280 247 232 246 229 219 189 157 140 123 238 254 333 291 194 206 209 196 191 222 232 258 270 269 260 269 248 235 229